Location: Freistadt
(48.5112°N, 14.5013°E)
Time: 19:18:08
(UTC+02:00)

NOAA 16 DEB - Visible Passes

Search period start: 26 May 2024 00:00
Search period end: 05 June 2024 00:00
Orbit: 748 x 777 km, 99.0° (Epoch: 25 May)

Date Brightness Start Highest point End Pass type
(mag) Time Alt. Az. Time Alt. Az. Time Alt. Az.
26 May ? 02:57:08 10° ESE 03:00:57 22° ENE 03:04:49 10° N visible
27 May ? 02:22:03 10° ENE 02:23:54 12° NE 02:25:45 10° NNE visible
27 May ? 03:56:50 10° SSE 04:01:49 66° ENE 04:06:51 10° N visible
28 May ? 03:19:56 10° SE 03:24:23 33° ENE 03:28:53 10° N visible
29 May ? 02:43:52 10° E 02:47:09 18° NE 02:50:26 10° NNE visible
29 May ? 04:20:21 10° SSE 04:25:23 81° WSW 04:30:30 10° NNW visible
30 May ? 03:42:55 10° SE 03:47:46 49° ENE 03:52:40 10° N visible
31 May ? 03:06:14 10° ESE 03:10:20 26° ENE 03:14:28 10° N visible
01 Jun ? 02:30:35 10° E 02:33:04 14° NE 02:35:35 10° NNE visible
01 Jun ? 04:06:04 10° SSE 04:11:05 76° ENE 04:16:12 10° NNW visible
02 Jun ? 03:28:51 10° SE 03:33:28 38° ENE 03:38:09 10° N visible
03 Jun ? 02:52:25 10° ESE 02:56:01 20° ENE 02:59:40 10° NNE visible
04 Jun ? 02:17:40 10° ENE 02:18:45 11° NE 02:19:50 10° NE visible
04 Jun ? 03:51:37 10° SSE 03:56:33 57° ENE 04:01:33 10° N visible
